Regional Weather Roundup
Issued by NWS

Home | Current Version | Previous Version | Text Only | Print | Product List | Glossary Off
Versions: 1 2 3 4 5 6 7 8 9 10 11 12 13 14 15 16 17 18 19 20 21 22 23 24 25 26 27 28 29 30 31 32 33 34 35 36 37 38 39 40 41 42 43 44 45 46 47 48 49 50

000
ASUS45 KPSR 291600
RWRAZ

ARIZONA HOURLY REGIONAL WEATHER ROUNDUP
NATIONAL WEATHER SERVICE PHOENIX AZ
900 AM MST MON JUN 29 2015

NOTE: FAIR INDICATES FEW OR NO CLOUDS BELOW 12,000 FEET WITH NO
SIGNIFICANT WEATHER AND/OR OBSTRUCTIONS TO VISIBILITY.

AZZ001>003-036-291700-
NORTHWEST ARIZONA

CITY           SKY/WX    TMP DP  RH WIND       PRES   REMARKS
KINGMAN        SUNNY     93  49  22 SW9       30.08S
$$

AZZ004>008-015-016-018-291700-
NORTH CENTRAL ARIZONA

CITY           SKY/WX    TMP DP  RH WIND       PRES   REMARKS
GRAND CANYON   SUNNY     81  45  28 N7        30.33S
WILLIAMS       SUNNY     77  50  38 CALM      30.41S
PRESCOTT       SUNNY     83  54  36 CALM      30.21F
FLAGSTAFF      NOT AVBL
PAYSON         SUNNY     81  50  34 CALM      30.23S
PAGE           SUNNY     88  47  24 VRB5      30.12S
$$

AZZ009>014-017-291700-
NORTHEAST ARIZONA

CITY           SKY/WX    TMP DP  RH WIND       PRES   REMARKS
WINSLOW        NOT AVBL
SAINT JOHNS    SUNNY     81  49  32 VRB5      30.26F
WINDOW ROCK    SUNNY     80  47  31 CALM      30.34S
SHOW LOW       SUNNY     77  45  31 E8        30.32S
$$

AZZ023-291700-
GREATER PHOENIX AREA

CITY           SKY/WX    TMP DP  RH WIND       PRES   REMARKS
PHOENIX        MOSUNNY   95  62  33 E6        29.91R
GLENDALE       MOSUNNY   93  64  38 SE3       29.93
LUKE AFB       SUNNY     95  64  36 CALM      29.90S
DEER VALLEY    SUNNY     92  61  35 CALM      29.93S
SCOTTSDALE     SUNNY     92  59  33 CALM      29.95S
MESA-GATEWAY   MOSUNNY   90  61  37 CALM      29.96R
CHANDLER       MOSUNNY   91  64  40 NE6       29.93R
$$

AZZ027-028-291700-
SOUTHWEST MARICOPA COUNTY AND PINAL COUNTY

CITY           SKY/WX    TMP DP  RH WIND       PRES   REMARKS
CASA GRANDE    SUNNY     88  68  51 CALM      29.94S
$$

AZZ503-504-507>509-291700-
SOUTHEAST ARIZONA

CITY           SKY/WX    TMP DP  RH WIND       PRES   REMARKS
TUCSON         SUNNY     89  58  34 S7        30.03F
DAVIS-MONTHAN  SUNNY     87  60  39 S7        30.02F
RYAN FIELD     SUNNY     88  63  42 NW3       30.02S
NOGALES        SUNNY     81  60  48 VRB5      30.12F
SIERRA VISTA   MOSUNNY   82  54  38 NE6       30.18F
SAFFORD        SUNNY     85  55  35 E5        30.06S
$$

AZZ020-021-025-026-031-291700-
SOUTHWEST ARIZONA

CITY           SKY/WX    TMP DP  RH WIND       PRES   REMARKS
YUMA           NOT AVBL
$$

CAZ031-033-041-043-047-048-061-291700-
SOUTHERN CALIFORNIA

CITY           SKY/WX    TMP DP  RH WIND       PRES   REMARKS
DOWNTOWN L.A.  MOSUNNY   75  61  61 CALM      29.90S
L.A. AIRPORT   PTSUNNY   73  62  68 W6        29.91S
SAN DIEGO      PTSUNNY   71  63  75 NW6       29.93S
BURBANK        MOSUNNY   77  59  53 CALM      29.92R
ONTARIO        CLOUDY    79  58  48 S7        29.91F
RIVERSIDE      PTSUNNY   79  58  48 CALM      29.91F
PALM SPRINGS   PTSUNNY   97  48  18 CALM      29.87R
EL CENTRO NAS  PTSUNNY   92  68  45 E6        29.85R
IMPERIAL       SUNNY     91  69  48 SE7       29.82R
BLYTHE         MOSUNNY   97  63  32 S12       29.85S
$$

NVZ020-UTZ003-291700-
SOUTHERN NEVADA-UTAH

CITY           SKY/WX    TMP DP  RH WIND       PRES   REMARKS
LAS VEGAS      NOT AVBL
SALT LAKE CITY MOSUNNY   91  48  22 SE7       30.07S
$$

NMZ009-TXZ055-291700-
NEW MEXICO-WEST TEXAS

CITY           SKY/WX    TMP DP  RH WIND       PRES   REMARKS
ALBUQUERQUE    MOSUNNY   80  46  30 N5        30.26S
EL PASO        MOSUNNY   82  49  31 VRB3      30.13S
$$


........................KEY........................
SKY/WX - SKY CONDITION/WEATHER
TMP    - TEMPERATURE IN FAHRENHEIT
DP     - DEW POINT IN FAHRENHEIT
RH     - RELATIVE HUMIDITY IN PERCENT
WIND   - DIRECTION AND SPEED IN MILES PER HOUR (MPH)
VRB    - VARIABLE WIND DIRECTION
PRES   - MEAN SEA LEVEL PRESSURE IN INCHES OF MERCURY
         F - FALLING PRESSURE   R - RISING PRESSURE
         S - STEADY PRESSURE
VSB    - VISIBILITY IN MILES
HX     - HEAT INDEX IN FAHRENHEIT
WCI    - WIND CHILL INDEX IN FAHRENHEIT
TC     - TEMPERATURE IN CELSIUS WHICH IS ALSO KNOWN AS
         TEMPERATURE IN CENTIGRADE
AFB    - AIR FORCE BASE
         LUKE AFB IS LUKE AIR FORCE BASE
         DAVIS-MONTHAN IS DAVIS-MONTHAN AIR FORCE BASE
NAS    - NAVAL AIR STATION
         EL CENTRO NAS IS EL CENTRO NAVAL AIR STATION
N/A    - NOT AVAILABLE




USA.gov is the U.S. government's official web portal to all federal, state and local government web resources and services.